Date String (YYYY-MM-DD hh:mm:ss) UTC,Instrument flags,Ambient pressure (hPa),Sample flow (lpm),Bypass flow (lpm),Sample temperature (°C),Ambient temperature (°C),ASC tube jacket temperature (°C),LED temperature (°C),Box temperature (°C),Sample RH (%),Span deviation,Mass concentration (μg/m³),Mass concentration (μg/m³),Mass concentration (μg/m³)
DateTimeUTC,F1_M11,P_M11,Q1_M11,Q2_M11,T1_M11,T2_M11,T3_M11,T4_M11,T5_M11,U1_M11,ZSPAN_M11,X2_M11,X0_M11,X1_M11
2021-12-03 14:00:00,,0831.3,5.00,0.00,27.5,26.5,00.0,36.5,29.3,13.9,0000.0,0002.92,0006.88,0001.60
2021-12-03 14:01:00,,0831.4,5.00,0.00,27.5,26.5,00.0,36.5,29.3,13.9,0000.0,0002.97,0006.32,0001.60
2021-12-03 14:02:00,,0831.3,5.01,0.00,27.5,26.5,00.0,36.5,29.3,13.9,0000.0,0002.93,0006.27,0001.59
2021-12-03 14:03:00,,0831.3,4.98,0.00,27.5,26.6,00.0,36.5,29.3,13.9,0000.0,0002.97,0006.31,0001.59
2021-12-03 14:04:00,,0831.4,5.00,0.00,27.5,26.5,00.0,36.5,29.3,13.9,0000.0,0003.01,0006.86,0001.61
2021-12-03 14:05:00,,0831.4,5.01,0.00,27.5,26.5,00.0,36.5,29.3,13.9,0000.0,0002.99,0006.92,0001.60
2021-12-03 14:06:00,,0831.4,4.98,0.00,27.5,26.5,00.0,36.5,29.3,13.9,0000.0,0003.06,0007.11,0001.60
2021-12-03 14:07:00,,0831.4,5.01,0.00,27.5,26.5,00.0,36.5,29.3,13.8,0000.0,0003.02,0007.30,0001.59
2021-12-03 14:08:00,,0831.4,4.98,0.00,27.5,26.5,00.0,36.5,29.3,13.8,0000.0,0003.03,0007.42,0001.59
2021-12-03 14:09:00,,0831.5,4.99,0.00,27.5,26.5,00.0,36.5,29.3,13.9,0000.0,0003.13,0007.80,0001.59
2021-12-03 14:10:00,,0831.5,5.01,0.00,27.5,26.5,00.0,36.5,29.3,13.9,0000.0,0003.13,0007.90,0001.59
2021-12-03 14:11:00,,0831.4,4.99,0.00,27.5,26.5,00.0,36.5,29.3,13.9,0000.0,0003.12,0007.90,0001.59
2021-12-03 14:12:00,,0831.5,5.00,0.00,27.5,26.5,00.0,36.5,29.3,13.9,0000.0,0003.08,0007.82,0001.60
2021-12-03 14:13:00,,0831.5,5.02,0.00,27.5,26.5,00.0,36.5,29.3,13.8,0000.0,0003.08,0007.87,0001.62
2021-12-03 14:14:00,,0831.5,4.99,0.00,27.5,26.5,00.0,36.5,29.2,13.9,0000.0,0003.06,0007.97,0001.62
2021-12-03 14:15:00,,0831.5,5.01,0.00,27.4,26.5,00.0,36.5,29.2,13.9,0000.0,0002.99,0007.67,0001.62
2021-12-03 14:16:00,,0831.5,4.98,0.00,27.4,26.5,00.0,36.5,29.2,13.8,0000.0,0003.05,0007.73,0001.63
2021-12-03 14:17:00,,0831.5,5.00,0.00,27.4,26.4,00.0,36.4,29.1,13.8,0000.0,0003.04,0007.65,0001.64
2021-12-03 14:18:00,,0831.5,5.01,0.00,27.4,26.4,00.0,36.4,29.1,13.7,0000.0,0003.07,0007.54,0001.66
2021-12-03 14:19:00,,0831.5,5.01,0.00,27.4,26.4,00.0,36.4,29.1,13.7,0000.0,0003.14,0007.77,0001.70
2021-12-03 14:20:00,,0831.5,4.99,0.00,27.4,26.4,00.0,36.4,29.1,13.7,0000.0,0003.14,0007.59,0001.74
2021-12-03 14:21:00,,0831.6,5.01,0.00,27.4,26.4,00.0,36.4,29.1,13.6,0000.0,0003.22,0007.72,0001.77
2021-12-03 14:22:00,,0831.5,4.99,0.00,27.4,26.4,00.0,36.4,29.2,13.6,0000.0,0003.28,0008.32,0001.80
2021-12-03 14:23:00,,0831.6,5.01,0.00,27.4,26.4,00.0,36.4,29.2,13.6,0000.0,0003.33,0008.61,0001.84
2021-12-03 14:24:00,,0831.6,5.01,0.00,27.4,26.4,00.0,36.4,29.2,13.5,0000.0,0003.36,0008.67,0001.86
2021-12-03 14:25:00,,0831.4,4.99,0.00,27.4,26.4,00.0,36.4,29.1,13.4,0000.0,0003.41,0008.89,0001.89
2021-12-03 14:26:00,,0831.5,5.02,0.00,27.4,26.4,00.0,36.4,29.1,13.4,0000.0,0003.45,0008.98,0001.93
2021-12-03 14:27:00,,0831.4,4.99,0.00,27.4,26.4,00.0,36.4,29.1,13.5,0000.0,0003.43,0008.79,0001.97
2021-12-03 14:28:00,,0831.4,4.99,0.00,27.4,26.4,00.0,36.4,29.1,13.4,0000.0,0003.44,0009.02,0002.00
2021-12-03 14:29:00,,0831.4,5.00,0.00,27.3,26.4,00.0,36.4,29.1,13.4,0000.0,0003.45,0009.27,0002.02
2021-12-03 14:30:00,,0831.5,5.00,0.00,27.3,26.4,00.0,36.4,29.1,13.4,0000.0,0003.41,0008.98,0002.02
2021-12-03 14:31:00,,0831.4,4.99,0.00,27.3,26.3,00.0,36.3,29.0,13.4,0000.0,0003.44,0009.03,0002.03
2021-12-03 14:32:00,,0831.4,5.01,0.00,27.3,26.3,00.0,36.3,29.0,13.5,0000.0,0003.48,0009.01,0002.05
2021-12-03 14:33:00,,0831.4,5.01,0.00,27.2,26.2,00.0,36.3,28.9,13.4,0000.0,0003.49,0008.47,0002.07
2021-12-03 14:34:00,,0831.4,4.98,0.00,27.2,26.2,00.0,36.3,28.9,13.4,0000.0,0003.47,0008.38,0002.08
2021-12-03 14:35:00,,0831.4,5.01,0.00,27.2,26.2,00.0,36.3,28.9,13.4,0000.0,0003.49,0008.66,0002.09
2021-12-03 14:36:00,,0831.5,5.00,0.00,27.1,26.1,00.0,36.3,28.8,13.4,0000.0,0003.51,0008.48,0002.10
2021-12-03 14:37:00,,0831.4,5.00,0.00,27.1,26.1,00.0,36.3,28.8,13.5,0000.0,0003.53,0008.56,0002.12
2021-12-03 14:38:00,,0831.4,5.00,0.00,27.1,26.1,00.0,36.2,28.8,13.5,0000.0,0003.54,0008.74,0002.12
2021-12-03 14:39:00,,0831.4,5.01,0.00,27.1,26.1,00.0,36.2,28.8,13.5,0000.0,0003.53,0008.81,0002.12
2021-12-03 14:40:00,,0831.3,4.99,0.00,27.1,26.1,00.0,36.2,28.8,13.5,0000.0,0003.56,0009.69,0002.14
2021-12-03 14:41:00,,0831.4,4.99,0.00,27.1,26.1,00.0,36.2,28.8,13.5,0000.0,0003.60,0010.37,0002.15
2021-12-03 14:42:00,,0831.3,5.01,0.00,27.1,26.2,00.0,36.2,28.8,13.4,0000.0,0003.60,0010.30,0002.17
2021-12-03 14:43:00,,0831.4,5.00,0.00,27.1,26.2,00.0,36.2,28.8,13.4,0000.0,0003.56,0010.28,0002.17
2021-12-03 14:44:00,,0831.4,5.00,0.00,27.1,26.2,00.0,36.1,28.8,13.4,0000.0,0003.56,0010.38,0002.18
2021-12-03 14:45:00,,0831.4,5.01,0.00,27.1,26.2,00.0,36.1,28.8,13.5,0000.0,0003.57,0010.47,0002.19
2021-12-03 14:46:00,,0831.4,4.99,0.00,27.1,26.2,00.0,36.1,28.8,13.5,0000.0,0003.55,0010.61,0002.18
2021-12-03 14:47:00,,0831.4,5.01,0.00,27.1,26.2,00.0,36.1,28.8,13.5,0000.0,0003.54,0010.60,0002.17
2021-12-03 14:48:00,,0831.3,5.00,0.00,27.1,26.2,00.0,36.1,28.8,13.6,0000.0,0003.51,0010.49,0002.16
2021-12-03 14:49:00,,0831.3,5.01,0.00,27.1,26.2,00.0,36.1,28.8,13.6,0000.0,0003.52,0010.41,0002.16
2021-12-03 14:50:00,,0831.4,5.00,0.00,27.1,26.2,00.0,36.1,28.8,13.6,0000.0,0003.48,0010.01,0002.15
2021-12-03 14:51:00,,0831.3,5.00,0.00,27.1,26.2,00.0,36.1,28.8,13.5,0000.0,0003.43,0009.12,0002.11
2021-12-03 14:52:00,,0831.4,4.99,0.00,27.1,26.2,00.0,36.1,28.9,13.5,0000.0,0003.39,0008.50,0002.10
2021-12-03 14:53:00,,0831.4,5.01,0.00,27.1,26.3,00.0,36.1,28.9,13.5,0000.0,0003.35,0008.46,0002.09
2021-12-03 14:54:00,,0831.3,5.00,0.00,27.1,26.2,00.0,36.1,28.9,13.5,0000.0,0003.34,0008.52,0002.08
2021-12-03 14:55:00,,0831.3,4.99,0.00,27.1,26.2,00.0,36.1,28.9,13.5,0000.0,0003.34,0008.57,0002.08
2021-12-03 14:56:00,,0831.4,5.02,0.00,27.1,26.2,00.0,36.1,28.9,13.5,0000.0,0003.34,0008.46,0002.08
2021-12-03 14:57:00,,0831.3,4.98,0.00,27.1,26.2,00.0,36.1,28.9,13.6,0000.0,0003.34,0008.60,0002.08
2021-12-03 14:58:00,,0831.3,5.01,0.00,27.1,26.2,00.0,36.1,28.8,13.6,0000.0,0003.36,0008.94,0002.06
2021-12-03 14:59:00,,0831.4,4.99,0.00,27.1,26.2,00.0,36.1,28.8,13.5,0000.0,0003.37,0009.06,0002.05
